Location: Beddau
(51.5575°N, 3.3561°W)
Time: 02:00:08
(UTC+00:00)

Cosmos 2237 - Pass Details

Date: 03 March 2021
Orbit: 845 x 857 km, 70.9° (Epoch: 12 April)

Event Time Altitude Azimuth Distance (km) Brightness Sun altitude
Rises 19:50:36 0° 212° (SSW) 3,413 7.6 -18.3°
Reaches altitude 10° 19:53:02 10° 214° (SW) 2,482 6.9 -18.6°
Maximum altitude 19:58:46 80° 301° (WNW) 876 4.3 -19.5°
Drops below altitude 10° 20:04:32 10° 29° (NNE) 2,502 6.5 -20.4°
Sets 20:07:00 0° 31° (NNE) 3,442 7.2 -20.7°
